sat.trackr.live / text

‹ back to catalog

STARLINK-36546

NORAD 67459 · 2026-008Q

PAYLOAD ACTIVE UNKNOWN

§ Identity

Operator
Country
US
Launch date
2026-01-14
Launch site
AFETR
Launch vehicle
Mass (kg)
RCS (m²)

Purposes: comms

External: N2YO · Heavens-Above · Gunter

§ Orbital elements

Epoch: 2026-09-19T22:12:33.542208Z

Period
94.27 min
Inclination
43.0019°
Eccentricity
0.0001558
Mean motion
15.27581221 rev/d
Perigee alt
482.0 km
Apogee alt
484.1 km
Semi-major
6,861.2 km
B*
3.2198e-4
RAAN
188.6643°
Arg perigee
252.0970°
Mean anomaly
107.9712°
Rev number
3,927

§ Raw data

STARLINK-365461 67459U 26008Q   26262.92538822  .00008609  00000+0  32198-3 0  99922 67459  43.0019 188.6643 0001558 252.0970 107.9712 15.27581221 39272

JSON: /api/v1/satellites/67459 · /tle

For live sub-satellite position, see the globe view (requires WebGL).

§ Visibility from observer

Set your observer location to see the next 7 days of passes ≥ 10°. The values pass through the URL so the page stays shareable.

No JS? Fill the form by hand. The geolocation button needs JavaScript.